Regional Weather Roundup
Issued by NWS Charleston, SC

Home | Current Version | Previous Version | Text Only | Print | Product List | Glossary On
Versions: 1 2 3 4 5 6 7 8 9 10 11 12 13 14 15 16 17 18 19 20 21 22 23 24 25 26 27 28 29 30 31 32 33 34 35 36 37 38 39 40 41 42 43 44 45 46 47 48 49 50
000
ASUS42 KCHS 281210
RWRCHS
REGIONAL WEATHER ROUNDUP
NATIONAL WEATHER SERVICE CHARLESTON SC
800 AM EDT THU AUG 28 2014

NOTE: "FAIR" INDICATES FEW OR NO CLOUDS BELOW 12,000 FEET WITH NO
SIGNIFICANT WEATHER AND/OR OBSTRUCTIONS TO VISIBILITY.

NOT ALL STATIONS ARE QUALITY CONTROLLED BY THE NATIONAL
WEATHER SERVICE. USE DATA WITH CAUTION...ESPECIALLY
DEWPOINT OBSERVATIONS.

SCZ027-030-031-034>040-042>050-281300-
...SOUTH CAROLINA...

CITY           SKY/WX    TMP DP  RH WIND       PRES   REMARKS
N CHARLESTON   MOSUNNY   72  64  76 W3        30.04R
6HR MIN TEMP:  69; 6HR MAX TEMP:  72;

WATERFRONT PRK   N/A     73 N/A N/A W7          N/A
FORT JOHNSON   NOT AVBL
MOUNT PLEASANT LGT RAIN  66  66 100 CALM      30.04R
JOHNS ISLAND   SUNNY     72  66  83 CALM      30.04R
PINOPOLIS        N/A     73  64  73 W8        29.96R
MONCKS CORNER    N/A     68  66  94 CALM      30.03R
SUMMERVILLE    FAIR      63  63 100 CALM      30.04R
BEAUFORT MCAS  MOSUNNY   71  66  84 CALM      30.04R
6HR MIN TEMP:  67; 6HR MAX TEMP:  71;

BEAUFORT ARPT  FAIR      70  68  94 W3        30.04R FOG
HILTON HEAD IS SUNNY     70  66  88 CALM      30.05R
GEORGETOWN     NOT AVBL
WALTERBORO     SUNNY     68 N/A N/A CALM      30.05R
ORANGEBURG     SUNNY     65  60  84 CALM      30.04R
6HR MIN TEMP:  62; 6HR MAX TEMP:  65;

BARNWELL       FAIR      63  59  88 CALM      30.05R
AIKEN          FAIR      64  63  94 SW3       30.08R
MANNING        FAIR      63 N/A N/A CALM      30.03R
KINGSTREE      NOT AVBL
COLUMBIA       MOSUNNY   65  58  78 CALM      30.03R
6HR MIN TEMP:  61; 6HR MAX TEMP:  65;

SUMTER         SUNNY     69  61  76 VRB2      30.02R
6HR MIN TEMP:  64; 6HR MAX TEMP:  69;

FLORENCE       SUNNY     67  60  78 CALM      30.02R
6HR MIN TEMP:  61; 6HR MAX TEMP:  67;

MYRTLE BEACH   SUNNY     68  63  83 MISG      30.02R
N MYRTLE BEACH NOT AVBL

$$

GAZ063-065-086>088-099>101-113>116-118-119-134-136>141-150-281300-
...GEORGIA...

CITY           SKY/WX    TMP DP  RH WIND       PRES   REMARKS
SAVANNAH ARPT  MOSUNNY   68  64  87 W3        30.05R
6HR MIN TEMP:  65; 6HR MAX TEMP:  70;

HUNTER AAF     SUNNY     67  65  94 W2        30.03R
6HR MIN TEMP:  64; 6HR MAX TEMP:  68;

FORT STEWART   SUNNY     67  64  87 CALM      30.03R
6HR MIN TEMP:  63; 6HR MAX TEMP:  67;

STATESBORO     NOT AVBL
SYLVANIA       SUNNY     65  65 100 CALM      30.05S
CLAXTON        NOT AVBL
THOMSON        SUNNY     61  61 100 CALM      30.10R
AUGUSTA-BUSH   SUNNY     60  60 100 CALM      30.04R
6HR MIN TEMP:  56; 6HR MAX TEMP:  62;

AUGUSTA-DANIEL SUNNY     70  60  70 S3        30.05R
SWAINSBORO     FAIR      68  68 100 CALM      30.06R
VIDALIA          N/A     68  64  88 CALM      30.05R
ALMA           SUNNY     63  63 100 CALM      30.04R FOG
6HR MIN TEMP:  59; 6HR MAX TEMP:  64;

WAYCROSS       SUNNY     68  67  98 CALM      30.04R
JESUP            N/A     64  63  94 CALM      30.05R
BRUNSWICK      SUNNY     68  64  88 CALM      30.04S
SAINT SIMONS   SUNNY     70  67  90 CALM      30.03R
6HR MIN TEMP:  68; 6HR MAX TEMP:  73;


$$

SCZ027-028-034-036>038-045-046-048>050-GAZ119-141-281300-
...LAKE AND SUPPLEMENTAL COASTAL OBSERVATIONS...

STATION/POSITION TIME  TEMP    WIND        PRES    WAVE   SWELL
                       AIR SEA DIR/SP/G            HT/PER HT/PER/DIR
                 (UTC) (F)     (DEG/KT/KT) (MB)    (FT/S) (FT/S/D)
UPR LAKE MARION  NOT AVBL
WINYAH BAY       1100   68     300/  4     1016.0S
LAKE MURRAY      1100   70     280/  1/  2 1016.3R
ACE BASIN NERRS  1100   67        CALM     1016.0S
FORT PULASKI     1200   71     320/  6/  7 1017.2R
SAPELO ISLAND    1100   69        CALM     1016.0S

$$

ANZ835-935-AMZ111-154-330-350-352-354-374-450-454-472-281300-
...C-MAN AND BUOY OBSERVATIONS...

STATION/POSITION TIME  TEMP    WIND        PRES    WAVE   SWELL
                       AIR SEA DIR/SP/G            HT/PER HT/PER/DIR
                 (UTC) (F)     (DEG/KT/KT) (MB)    (FT/S) (FT/S/D)
FOLLY BEACH CMAN 1100   70     300/  3/  5 1017.0R
BUOY 41004       1200   81 82  280/  8/ 10 1016.4R   5/10   5/10
BUOY 41008       1200   81 84   CALM  /  2 1016.7R   4/ 8   3/ 90/ 8
5E ST. MARYS GA  1200      83                N/A     4/10   2/ 90/11
FRYING PAN BUOY  NOT AVBL
BUOY 41025       1200   78     280/ 16/ 19 1014.3R   5/12   5/120/12
CAPE LOOKOUT NC  1100   77     290/ 12/ 14 1015.0R
BUOY 41002       1054   80 81  300/  6/  6 1016.4R   8/ 9   8/ 90/ 9
BUOY 41010       1200   83 83  190/  4/  6 1016.3R   7/ 9   7/ 30/ 9
BUOY 41012       NOT AVBL
ST AUGUSTINE FL  1200   73     320/  5/  6 1017.4R
CAPERS NEARSHORE 1100   75     300/  8/ 10   N/A
FRIPP NEARSHORE  NOT AVBL


$$


USA.gov is the U.S. government's official web portal to all federal, state and local government web resources and services.